Flag for Colombia Weather past 2 weeks in San Juan de Pasto, Colombia

Now
55 °F

Scattered clouds.


Feels Like: 52 °F
Forecast: N/A
Wind: 14 mph from South

Location: Latacunga Airport

Current Time: Sep 16, 2014 at 6:51:48 PM

Latest Report: Sep 16, 2014 at 6:00 PM


Visibility: N/A

Pressure: 30.39 "Hg

Humidity: 72%

Dew point: 46 °F

Location of San Juan de PastoLocation

Historic Weather in San Juan de Pasto — Graph

°F

San Juan de Pasto temperature yesterday

Maximum temperature yesterday: 55 °F (at 2:00 PM)
Minimum temperature yesterday: 50 °F (at 1:00 AM)
Average temperature yesterday: 51 °F

Past Weeks' High & Low Weather Summary

 TemperatureHumidityPressure
High68 °F (Sep 2, 4:00 PM)100% (Sep 2, 2:00 AM)30.51 "Hg (Sep 2, 2:00 AM)
Low34 °F (Sep 2, 6:00 AM)40% (Sep 5, 2:00 PM)30.24 "Hg (Sep 11, 4:00 PM)
Average53 °F80%30.40 "Hg
* Reported Sep 1 5:00 PM — Sep 16 5:00 PM, San Juan de Pasto, Weather by CustomWeather, © 2014

Note: Actual official high and low records may vary slightly from our data, if they occured in-between our weather recording intervals... More about our weather records

Advertising

San Juan de Pasto weather history for previous 24 hours

 ConditionsComfort  
Time TempWeatherWind HumidityBarometerVisibility
5:00 PM
Sep 16
61 °FPartly sunny.15 mph59%30.36 "HgN/A
2:00 PM63 °FPartly sunny.12 mph59%30.42 "HgN/A
1:00 PM63 °FPartly sunny.12 mph56%30.45 "HgN/A
12:00 PM63 °FPartly sunny.6 mph59%30.48 "HgN/A
11:00 AM59 °FBroken clouds.12 mph68%30.51 "HgN/A
10:00 AM59 °FBroken clouds.10 mph72%30.51 "HgN/A
9:00 AM55 °FScattered clouds.12 mph82%30.51 "HgN/A
8:00 AM52 °FPartly sunny.7 mph94%30.51 "HgN/A
7:00 AM50 °FPartly sunny.7 mph100%30.48 "HgN/A
6:00 AM48 °FPassing clouds.5 mph100%30.45 "HgN/A
5:00 AM50 °FPartly cloudy.5 mph100%30.45 "HgN/A
4:00 AM50 °FPartly cloudy.6 mph100%30.42 "HgN/A
3:00 AM48 °FPartly cloudy.8 mph100%30.42 "HgN/A
2:00 AM50 °FPartly cloudy.3 mph100%30.45 "HgN/A
1:00 AM50 °FPartly cloudy.3 mph100%30.48 "HgN/A
11:00 PM
Sep 15
50 °FPassing clouds.5 mph100%30.51 "HgN/A
10:00 PM52 °FPassing clouds.6 mph88%30.48 "HgN/A
9:00 PM52 °FPassing clouds.5 mph88%30.48 "HgN/A
8:00 PM52 °FPassing clouds.6 mph88%30.45 "HgN/A
7:00 PM54 °FPassing clouds.13 mph88%30.42 "HgN/A
Weather by CustomWeather, © 2014

See weather overviewHow to use our weather pages